DW9672 Weather Reports


time (UTC)temp
C
wind
direction
speed
KPH
gust
KPH
rain 1hr
cm
rain 24hr
cm
rain mn
cm
humidity
%
barometer
mb
20260504050024 12 207 0.0 1.6 0.00 0.00 0.00 81 1008.5
20260504044506 12 226 0.0 4.8 0.00 0.00 0.00 78 1008.6
20260504043106 12 228 0.0 4.8 0.00 0.00 0.00 77 1008.6
20260504041541 13 231 0.0 4.8 0.00 0.00 0.00 76 1008.6
20260504040038 13 242 0.0 1.6 0.00 0.00 0.00 74 1008.6
20260504034518 13 242 0.0 3.2 0.00 0.00 0.00 73 1008.7
20260504033017 13 256 0.0 4.8 0.00 0.00 0.00 72 1008.8
20260504031603 14 202 0.0 4.8 0.00 0.00 0.00 72 1008.9
20260504030055 14 202 0.0 0.0 0.00 0.00 0.00 71 1008.8
20260504024535 14 201 0.0 0.0 0.00 0.00 0.00 70 1008.8
20260504023034 15 205 0.0 3.2 0.00 0.00 0.00 70 1008.8
20260504021515 15 205 0.0 1.6 0.00 0.00 0.00 69 1008.7
20260504020013 15 205 0.0 0.0 0.00 0.00 0.00 66 1008.7
20260504014557 16 205 0.0 0.0 0.00 0.00 0.00 65 1008.7
20260504013058 16 205 0.0 0.0 0.00 0.00 0.00 62 1008.6
20260504011537 17 205 0.0 6.4 0.00 0.00 0.00 59 1008.6
20260504010036 17 208 0.0 6.4 0.00 0.00 0.00 57 1008.4
20260504004519 18 167 0.0 8.0 0.00 0.00 0.00 55 1008.4
20260504003017 18 176 1.6 9.7 0.00 0.00 0.00 53 1008.4
20260504001602 19 194 0.0 11.3 0.00 0.00 0.00 52 1008.5
20260504000101 20 360 1.6 9.7 0.00 0.00 0.00 50 1008.5
20260503234540 20 55 1.6 17.7 0.00 0.00 0.00 48 1008.7
20260503233039 20 305 6.4 19.3 0.00 0.00 0.00 47 1008.7
20260503231522 20 11 4.8 17.7 0.00 0.00 0.00 48 1008.8
20260503230020 20 360 4.8 17.7 0.00 0.00 0.00 46 1008.8
20260503224501 20 316 6.4 22.5 0.00 0.00 0.00 47 1008.9
20260503223102 20 206 4.8 14.5 0.00 0.00 0.00 47 1009.1
20260503221542 20 290 4.8 29.0 0.00 0.00 0.00 46 1009.2
20260503220042 20 227 4.8 29.0 0.00 0.00 0.00 46 1009.2
20260503214537 20 360 8.0 22.5 0.00 0.00 0.00 45 1009.1
20260503213023 20 189 8.0 24.1 0.00 0.00 0.00 44 1009.2
20260503211504 20 36 6.4 24.1 0.00 0.00 0.00 44 1009.2
20260503210003 20 205 4.8 30.6 0.00 0.00 0.00 44 1009.4
20260503204544 20 215 4.8 24.1 0.00 0.00 0.00 44 1009.4
20260503203047 20 5 8.0 20.9 0.00 0.00 0.00 42 1009.7
20260503201523 20 360 3.2 32.2 0.00 0.00 0.00 43 1009.8
20260503200019 19 194 9.7 27.4 0.00 0.00 0.00 43 1010.3
20260503194604 18 212 6.4 19.3 0.00 0.00 0.00 45 1010.6
20260503193103 18 360 9.7 24.1 0.00 0.00 0.00 46 1010.9
20260503191543 18 246 9.7 30.6 0.00 0.00 0.00 45 1011.4
20260503190036 18 229 11.3 27.4 0.00 0.00 0.00 44 1011.2
20260503184516 18 212 16.1 38.6 0.00 0.00 0.00 44 1011.4
20260503183015 18 34 6.4 27.4 0.00 0.00 0.00 45 1011.4
20260503181611 17 207 9.7 35.4 0.00 0.00 0.00 46 1011.9
20260503180111 17 360 9.7 24.1 0.00 0.00 0.00 47 1012.3
20260503174543 16 117 8.0 27.4 0.00 0.00 0.00 48 1013.0
20260503173036 16 18 6.4 29.0 0.00 0.00 0.00 53 1013.4
20260503171505 15 360 9.7 22.5 0.00 0.00 0.00 55 1014.1
20260503081526 6 209 0.0 3.2 0.00 0.00 0.00 74 1018.1
20260503071529 7 208 0.0 6.4 0.00 0.00 0.00 71 1018.1